Location: Hermaringen
(48.5952°N, 10.2585°E)
Time: 00:11:37
(UTC+00:00)

Cosmos 1634 Rocket - Pass Details

Date: 18 November 2025
Orbit: 958 x 992 km, 82.9° (Epoch: 05 December)

Event Time Altitude Azimuth Distance (km) Brightness Sun altitude
Rises 17:42:01 0° 163° (SSE) 3,679 6.9 -20.6°
Reaches altitude 10° 17:44:39 10° 157° (SSE) 2,731 6.2 -21.0°
Enters shadow 17:50:03 41° 98° (E) 1,385 4.3 -21.9°
Exits shadow 17:57:50 - 17° (NNE) 3,296 6.6 -23.2°
Sets 17:58:51 0° 15° (NNE) 3,673 6.8 -23.4°
